This is the latest recevied weather packets stored in our database for station/object OE6PLD-13. If no packets are shown the sender has not sent any weather packets the latest 10 day(s).
| Time | Temp. | Humidity | Pressure | Rain* | Wind** | Luminosity | Snow |
|---|---|---|---|---|---|---|---|
| 1777967739 | 21.11° C | 45% | 1009.4 hPa | 0.76 mm | - | 580 W/m² | - |
| 1777967556 | 21.11° C | 45% | 1009.3 hPa | 0.76 mm | - | 587 W/m² | - |
| 1777967373 | 21.11° C | 44% | 1009.3 hPa | 0.76 mm | - | 590 W/m² | - |
| 1777967189 | 20.56° C | 44% | 1009.2 hPa | 0.76 mm | - | 610 W/m² | - |
| 1777967006 | 20.56° C | 44% | 1009.2 hPa | 0.76 mm | - | 630 W/m² | - |
| 1777966823 | 20.56° C | 44% | 1009.4 hPa | 0.76 mm | - | 665 W/m² | - |
| 1777966639 | 20.56° C | 46% | 1009.4 hPa | 0.76 mm | - | 684 W/m² | - |
| 1777966456 | 20.56° C | 45% | 1009.6 hPa | 0.76 mm | - | 697 W/m² | - |
| 1777966272 | 20.56° C | 47% | 1009.6 hPa | 0.76 mm | - | 676 W/m² | - |
| 1777966089 | 20.56° C | 47% | 1009.3 hPa | 0.76 mm | - | 618 W/m² | - |
| 1777965906 | 20.56° C | 47% | 1009.5 hPa | 0.76 mm | - | 577 W/m² | - |
| 1777965722 | 20° C | 48% | 1009.5 hPa | 0.76 mm | - | 514 W/m² | - |
| 1777965539 | 20° C | 49% | 1009.5 hPa | 0.76 mm | - | 435 W/m² | - |
| 1777965356 | 20° C | 49% | 1009.4 hPa | 0.76 mm | - | 403 W/m² | - |
| 1777965172 | 20° C | 51% | 1009.5 hPa | 0.76 mm | - | 396 W/m² | - |
| 1777964989 | 20° C | 51% | 1009.5 hPa | 0.76 mm | - | 399 W/m² | - |
| 1777964806 | 19.44° C | 53% | 1009.5 hPa | 0.76 mm | - | 418 W/m² | - |
| 1777964622 | 18.89° C | 55% | 1009.6 hPa | 0.76 mm | - | 429 W/m² | - |
| 1777964439 | 18.33° C | 55% | 1009.6 hPa | 0.76 mm | - | 365 W/m² | - |
| 1777964256 | 17.78° C | 57% | 1009.7 hPa | 0.76 mm | - | 358 W/m² | - |
| 1777964072 | 17.78° C | 58% | 1009.8 hPa | 0.76 mm | - | 237 W/m² | - |
| 1777963889 | 17.78° C | 56% | 1009.6 hPa | 0.76 mm | - | 280 W/m² | - |
| 1777963706 | 17.78° C | 57% | 1009.9 hPa | 0.76 mm | - | 201 W/m² | - |
| 1777963522 | 17.78° C | 57% | 1009.8 hPa | 0.76 mm | - | 174 W/m² | - |
| 1777963339 | 17.78° C | 58% | 1009.8 hPa | 0.76 mm | - | 197 W/m² | - |
* Rain latest hour (hover to see other rain measurements)
** Current wind speed in m/s (hover to see current wind gust speed)